SCP
0 0 0 0 0 0 0 0 0 0 0 0 0 0 0 0 0 0 0 0 0 0 0 0 0 0 0 0 0 0 0 0 0 0 0 0 0 0 0 0 0 0 0
0 0 0 0 1 0 0 0 0 0 0 0 0 0 0 0 0 0 0 0 0 0 0 0 0 0 0 0 0 0 0 0 0 0 0 0 0 0 0 0 0 0 0
0 0 0 1 1 1 0 0 0 0 0 0 0 0 0 0 0 0 0 0 0 0 0 0 0 0 0 0 0 0 0 0 0 0 0 0 0 0 0 0 0 0 0
0 0 1 1 1 1 1 0 0 0 0 0 0 0 0 0 0 0 0 0 0 0 0 0 0 0 0 0 0 0 0 0 0 0 0 0 0 0 0 0 0 0 0
1 1 1 1 1 1 1 1 0 0 0 0 0 0 0 0 0 0 0 0 0 0 0 0 0 0 0 0 0 0 0 0 0 0 0 0 0 0 0 0 0 0 0
1 1 1 1 1 1 1 1 0 0 0 0 0 0 0 0 0 0 0 0 0 0 0 0 0 0 0 0 0 0 0 0 0 0 0 0 0 0 0 0 0 0 0
1 1 1 1 1 1 1 1 0 0 0 0 0 0 0 0 0 0 0 0 0 0 0 0 0 0 0 0 0 0 0 0 0 0 0 0 0 0 0 0 0 0 0
1 1 1 1 1 1 1 1 0 0 0 0 0 0 0 0 0 0 0 0 0 0 0 0 0 0 0 0 0 0 0 0 0 0 0 0 0 0 0 0 0 0 0
1 1 1 1 1 1 1 1 1 0 0 0 0 0 0 0 0 0 0 0 0 0 0 0 0 0 0 0 0 0 0 0 0 0 0 0 0 0 0 0 0 0 0
1 1 1 1 1 1 1 1 1 0 0 0 0 0 0 0 0 0 0 0 0 0 0 0 0 0 0 0 0 0 0 0 0 0 0 0 0 0 0 0 0 0 0
1 1 1 1 1 1 1 1 0 0 0 0 0 0 0 0 0 0 0 0 0 0 0 0 0 0 0 0 0 0 0 0 0 0 0 0 0 0 0 0 0 0 0
1 1 1 1 1 1 1 1 0 0 0 0 0 0 0 0 0 0 0 0 0 0 0 0 0 0 0 0 0 0 0 0 0 0 0 0 0 0 0 0 0 0 0
1 1 1 1 1 1 1 0 0 0 0 0 0 0 0 0 0 0 0 0 0 0 0 0 0 0 0 0 0 0 0 0 0 0 0 0 0 0 0 0 0 0 0
1 1 1 1 1 1 0 0 0 0 0 0 0 0 0 0 0 0 0 0 0 0 0 0 0 0 0 0 0 0 0 0 0 0 0 0 0 0 0 0 0 0 0
1 1 1 1 1 0 0 0 0 0 0 0 0 0 0 0 0 0 0 0 0 0 0 0 0 0 0 0 0 0 0 0 0 0 0 0 0 0 0 0 0 0 0
1 1 1 1 0 0 0 0 0 0 0 0 0 0 0 0 0 0 0 0 0 0 0 0 0 0 0 0 0 0 0 0 0 0 0 0 0 0 0 0 0 0 0
1 1 0 0 0 0 0 0 0 0 0 0 0 0 0 0 0 0 0 0 0 0 0 0 0 0 0 0 0 0 0 0 0 0 0 0 0 0 0 0 0 0 0
0 0 0 0 0 0 0 0 0 0 0 0 0 0 0 0 0 0 0 0 0 0 0 0 0 0 0 0 0 0 0 0 0 0 0 0 0 0 0 0 0 0 0
0 0 0 0 0 0 0 0 0 0 0 0 0 0 0 0 0 0 0 0 0 0 0 0 0 0 0 0 0 0 0 0 0 0 0 0 0 0 0 0 0 0 0
0 0 0 0 0 0 0 0 0 0 0 0 0 0 0 0 0 0 0 0 0 0 0 0 0 0 0 0 0 0 0 0 0 0 0 0 0 0 0 0 0 0 0
0 0 0 0 0 0 0 0 0 0 0 0 0 0 0 0 0 0 0 0 0 0 0 0 0 0 0 0 0 0 0 0 0 0 0 0 0 0 0 0 0 0 0
0 0 0 0 0 0 0 0 0 0 0 0 0 0 0 0 0 0 0 0 0 0 0 0 0 0 0 0 0 0 0 0 0 0 0 0 0 0 0 0 0 0 0
0 0 0 0 0 0 0 0 0 0 0 0 0 0 0 0 0 0 0 0 0 0 0 0 0 0 0 0 0 0 0 0 0 0 0 0 0 0 0 0 0 0 0
0 0 0 0 0 0 0 0 0 0 0 0 0 0 0 0 0 0 0 0 0 0 0 0 0 0 0 0 0 0 0 0 0 0 0 0 0 0 0 0 0 0 0
0 0 0 0 0 0 0 0 0 0 0 0 0 0 0 0 0 0 0 0 0 0 0 0 0 0 0 0 0 0 0 0 0 0 0 0 0 0 0 0 0 0 0
0 0 0 0 0 0 0 0 0 0 0 0 0 0 0 0 0 0 0 0 0 0 0 0 0 0 0 0 0 0 0 0 0 0 0 0 0 0 0 0 0 0 0
Wind_Speed
6 8 15 15 16 16 16 16 16 16 15 15 16 16 16 16 15 15 15 14 14 14 14 14 14 14 14 14 14 14 14 14 14 14 13 13 13 13 13 12 11 7 13
10 11 16 15 16 16 16 16 16 15 15 15 15 15 15 15 15 14 14 14 13 13 13 14 14 14 13 13 13 13 13 13 12 12 12 11 12 12 12 12 11 8 12
12 11 14 16 16 16 16 16 15 15 15 14 15 15 15 15 14 14 13 14 13 13 13 13 13 13 12 12 12 12 12 12 11 11 10 5 6 11 11 11 11 11 11
13 11 12 16 16 16 16 16 15 15 15 14 14 14 14 14 14 13 13 13 13 13 13 12 12 12 11 11 11 11 11 11 10 10 5 4 4 9 10 10 10 10 10
10 9 12 16 16 16 16 16 15 15 15 14 14 13 13 14 13 13 13 13 13 12 12 12 11 11 10 10 10 10 10 11 11 8 4 4 3 8 9 10 10 10 9
9 9 12 16 16 16 16 15 15 15 15 14 14 13 13 13 13 12 12 12 12 12 11 11 10 10 10 10 10 10 10 11 8 5 4 3 3 7 8 9 9 9 9
10 9 11 15 16 15 15 15 15 14 14 14 13 13 13 13 13 12 11 11 11 11 10 10 9 9 9 9 10 10 10 10 6 4 3 3 4 7 7 8 8 8 8
11 10 10 14 15 15 14 14 14 14 14 13 13 13 13 12 12 11 11 10 10 10 9 9 9 9 9 9 9 9 9 9 6 4 3 2 5 7 7 6 6 6 6
10 9 8 8 10 13 14 13 13 13 13 13 12 12 12 11 11 11 10 10 9 8 8 8 8 8 8 8 8 9 9 9 5 3 3 2 5 6 6 6 5 5 6
8 8 7 7 7 7 8 12 13 12 12 12 12 11 11 10 10 10 8 9 8 8 7 7 7 7 7 7 7 7 7 6 3 3 1 2 5 6 6 6 5 5 5
8 7 7 7 7 6 6 9 10 11 11 11 9 11 9 5 5 5 7 8 8 7 7 7 6 6 5 5 5 5 5 2 2 1 1 3 4 5 5 5 5 5 5
9 8 7 7 7 6 6 6 5 5 6 5 5 5 4 4 3 5 7 7 7 6 6 5 5 4 4 2 3 4 2 2 1 1 1 3 3 4 4 5 5 6 6
9 8 7 7 7 6 5 5 3 3 3 4 5 5 4 3 3 3 2 3 3 4 3 3 3 2 1 1 1 1 1 1 1 1 1 3 3 4 5 5 6 6 7
8 8 7 7 7 6 6 5 4 3 3 3 4 5 4 3 3 2 2 2 2 1 2 2 1 1 2 1 1 1 2 1 1 1 1 3 3 4 5 5 6 7 7
8 7 7 7 8 7 6 5 4 4 4 4 4 4 5 4 3 3 2 1 1 1 1 1 1 2 2 1 1 1 1 1 1 1 1 3 3 4 5 6 7 7 8
8 8 7 7 7 7 6 5 4 4 4 4 3 4 5 4 4 3 2 2 1 1 1 1 1 1 1 1 2 1 1 1 1 1 1 2 4 5 6 7 7 8 8
8 8 8 8 7 7 6 5 4 4 4 3 3 4 4 4 4 3 3 2 1 1 2 2 2 2 2 2 2 2 1 1 1 1 1 1 2 4 6 7 8 8 9
7 7 7 7 8 7 6 5 4 4 4 3 3 3 4 4 4 4 3 2 1 1 2 2 1 2 2 1 1 1 1 1 1 1 1 1 1 2 4 7 8 9 9
8 8 7 6 7 7 7 5 4 4 4 3 3 3 3 4 4 4 2 2 2 2 1 1 1 1 1 1 1 1 2 1 1 1 1 1 1 1 2 4 7 9 10
6 7 7 7 6 6 5 5 4 3 3 3 3 3 4 3 4 3 2 2 2 2 1 2 2 2 1 0 1 2 2 2 1 1 1 1 1 2 2 3 3 5 9
6 6 7 7 6 6 5 4 4 3 3 2 2 3 4 4 4 4 2 2 2 2 2 2 2 2 2 1 2 2 3 3 2 1 1 1 2 2 2 3 2 3 4
6 6 6 7 7 6 5 3 3 3 2 2 2 2 3 4 3 3 3 2 2 2 2 2 2 1 1 2 2 1 2 4 3 3 2 1 2 2 2 3 3 3 3
6 6 6 6 6 6 5 4 4 3 3 2 1 1 2 3 3 3 3 3 2 2 2 2 2 2 1 1 1 2 2 2 3 3 2 2 2 2 2 3 3 3 4
5 5 5 6 6 5 6 6 7 5 4 3 2 2 2 2 3 3 3 3 3 2 2 2 2 2 2 1 1 0 1 2 1 2 3 2 2 3 3 3 3 3 3
4 4 5 5 5 5 5 6 6 4 3 2 2 3 2 1 2 2 3 3 2 2 2 2 2 2 2 2 1 0 0 0 1 1 3 4 4 3 2 3 3 3 3
3 4 4 5 5 5 5 5 5 6 5 5 4 3 2 1 1 2 2 2 2 2 2 2 2 2 1 1 1 1 1 1 1 1 2 3 4 4 4 3 2 3 3
Wind_Direction
153 155 141 137 132 128 124 121 119 115 112 109 106 105 104 101 100 98 98 97 95 93 92 91 88 86 84 82 80 80 79 76 73 72 72 75 75 74 72 68 64 59 64
148 150 141 139 135 131 127 124 120 117 114 111 109 107 106 103 101 99 99 97 95 93 92 91 89 87 86 84 82 81 79 76 74 71 68 69 72 71 70 67 66 64 63
142 144 142 140 136 133 129 126 123 119 116 114 112 110 108 106 103 101 99 97 96 93 91 90 88 86 84 83 83 82 80 78 74 71 65 52 64 71 70 67 67 65 64
140 142 142 139 136 133 130 128 126 122 120 117 116 113 111 107 104 102 101 98 96 93 91 90 88 85 83 81 79 79 78 77 74 70 60 46 54 71 71 68 67 64 61
135 139 142 138 136 134 132 130 128 125 123 120 118 116 113 109 106 103 102 99 96 93 91 90 87 85 83 81 77 76 76 77 74 66 57 46 49 71 71 67 63 61 58
132 135 140 138 137 135 134 131 129 126 124 122 120 118 116 114 110 105 102 99 98 96 94 91 87 84 82 81 78 76 73 77 72 60 52 44 48 68 68 67 61 57 54
133 135 141 139 138 136 135 132 130 127 126 124 122 121 119 117 113 109 105 103 101 99 97 94 90 85 81 79 78 76 75 76 73 62 50 38 54 64 67 69 63 57 50
134 135 140 139 137 136 134 133 131 129 127 125 124 123 121 118 115 114 110 106 103 102 99 96 92 86 83 80 77 77 74 73 69 61 48 36 60 65 65 65 60 52 43
130 130 132 137 137 136 133 131 129 128 127 125 124 121 119 118 117 115 112 109 106 103 100 97 93 88 85 79 77 76 73 72 64 51 47 37 60 63 59 55 51 42 32
125 128 128 127 128 129 131 131 129 127 125 123 120 117 115 113 113 112 110 109 108 105 101 98 95 89 81 77 79 78 74 67 56 44 30 48 59 59 54 45 38 30 20
130 132 131 129 127 126 128 129 126 124 121 119 115 113 106 97 98 103 108 109 109 106 103 98 93 86 74 68 74 75 69 67 56 34 16 61 60 52 44 34 28 20 10
147 144 139 136 134 131 127 120 118 118 116 111 111 111 104 101 99 102 104 104 102 98 96 93 84 74 64 48 52 58 60 64 52 18 29 62 56 45 33 27 22 11 3
151 146 145 142 137 132 127 126 118 114 113 112 116 116 112 99 93 85 86 82 74 72 62 57 50 45 55 59 51 53 64 60 40 3 13 59 54 39 28 17 9 2 359
146 148 148 144 138 135 133 131 130 128 124 125 129 127 122 114 106 105 98 96 82 72 70 53 42 33 41 52 78 74 70 70 52 13 8 49 38 20 16 10 4 1 359
145 150 152 148 144 142 136 140 135 135 134 135 131 130 130 128 128 122 114 107 99 89 90 73 47 40 39 37 45 74 73 76 72 51 11 30 27 12 4 0 359 354 354
149 152 150 149 148 144 142 142 141 138 134 131 134 138 134 132 133 129 122 115 107 107 105 98 82 65 40 40 32 44 71 69 71 66 24 14 21 14 2 356 353 352 351
153 152 150 151 146 145 140 139 137 138 131 132 134 134 132 132 134 130 125 121 122 106 95 82 55 54 50 42 27 17 30 35 63 56 29 3 353 4 4 355 351 350 349
148 151 153 151 146 145 140 136 135 133 129 128 129 128 129 131 132 127 125 129 119 101 99 99 77 62 43 36 14 353 359 8 14 20 26 4 355 355 356 0 356 353 352
151 149 146 144 146 144 137 130 128 127 126 129 129 131 133 133 134 130 131 134 123 106 96 99 73 88 64 17 348 348 347 340 325 14 15 5 2 2 359 1 2 359 356
146 144 142 142 142 136 128 120 118 116 123 127 132 138 138 137 135 130 127 128 121 110 90 86 89 65 76 34 10 358 340 336 347 7 353 5 10 16 8 5 355 351 354
139 143 147 148 147 141 139 142 141 148 147 138 140 141 138 135 133 129 128 126 122 126 133 117 97 71 31 26 45 1 345 346 354 347 355 9 9 2 0 356 347 341 339
152 155 156 157 155 156 156 152 142 136 134 135 136 135 142 139 138 137 137 138 131 123 114 110 106 91 31 37 93 68 353 342 341 342 347 355 353 354 351 348 340 341 334
157 164 164 163 160 157 145 124 108 87 80 90 124 146 154 146 144 142 145 139 136 136 147 149 140 132 131 10 64 130 139 248 302 320 338 344 341 340 325 327 330 332 332
170 166 162 158 157 155 147 146 149 152 160 180 170 156 145 143 143 144 144 142 145 142 145 158 135 137 136 138 353 34 170 176 195 306 316 324 328 319 314 328 328 323 323
159 159 159 152 151 151 152 154 154 150 145 135 134 136 142 143 144 145 146 143 145 142 147 144 132 127 141 157 177 194 57 21 182 200 285 313 321 303 301 303 309 314 319
123 134 146 150 150 152 153 155 158 154 147 145 151 155 157 149 144 150 145 143 145 145 152 151 141 137 144 153 172 175 176 189 209 204 247 291 301 300 305 301 301 303 308